RH
100 94 90 100 100 68 39 34 31 30 48 54 50 57 63 59 60 67 74 73 72 75 81 76 72 72 68 52 20 11 11 10 10 7 6 6 6 6 6 6 6 6 6 6
98 59 100 100 100 86 54 41 38 42 45 53 60 49 55 50 45 52 60 62 61 67 75 73 74 73 74 61 53 37 21 12 9 8 7 8 7 6 6 6 6 6 7 7
100 91 100 100 100 99 77 61 44 39 40 39 46 49 54 47 34 40 44 50 53 55 61 66 71 68 64 62 58 52 46 46 46 41 36 31 21 13 11 9 8 7 8 8
96 100 100 100 100 100 94 77 58 40 46 39 34 53 44 44 38 38 39 39 42 50 51 42 44 49 48 48 42 35 31 28 31 34 36 39 41 42 42 44 45 43 45 44
86 100 100 99 99 100 100 96 76 55 52 39 34 42 44 44 44 39 38 35 39 39 44 45 36 35 33 34 33 34 32 29 27 26 28 29 29 30 29 30 31 32 32 32
80 100 100 100 100 100 98 100 95 69 62 52 38 41 43 51 48 44 50 46 38 39 42 45 40 38 38 39 37 31 31 31 30 29 32 34 30 32 33 32 32 33 35 35
51 98 96 100 100 98 94 99 97 86 60 62 44 38 50 53 59 56 53 59 57 48 49 48 47 45 45 44 43 45 48 50 49 45 38 36 46 45 42 41 38 38 41 44
50 67 81 94 100 92 100 94 100 100 99 77 67 53 45 51 59 58 61 59 66 73 74 67 62 58 62 61 55 58 63 63 64 67 59 52 40 42 53 58 51 50 53 57
56 50 64 71 100 100 100 97 72 88 100 100 81 70 52 57 63 61 66 73 68 72 82 85 90 84 85 90 86 73 74 77 82 83 80 70 59 45 44 47 56 66 68 73
93 85 63 62 91 96 100 100 100 68 65 98 100 95 81 71 86 81 80 78 73 74 81 83 85 96 100 100 100 100 100 98 100 100 100 100 89 91 79 79 83 94 93 89
76 79 88 73 50 58 96 100 95 100 93 82 100 100 100 100 100 98 86 87 90 90 98 95 88 92 100 100 100 100 100 100 100 100 100 100 87 81 78 89 83 71 75 82
100 97 84 86 90 70 54 96 100 98 100 100 100 100 100 100 100 100 100 100 99 88 80 72 80 83 80 78 82 93 100 95 84 72 69 75 85 82 84 83 95 100 100 94
84 73 70 95 75 58 52 60 88 100 100 75 93 99 100 100 100 100 100 100 100 98 85 76 71 71 84 83 81 78 74 65 56 55 57 63 66 76 91 99 100 100 92 98
100 100 94 81 71 92 75 50 60 78 93 98 100 100 100 100 100 100 100 94 78 78 85 92 90 71 66 78 80 69 60 55 52 47 50 53 55 63 72 88 91 93 92 94
100 81 61 73 93 100 93 81 94 100 100 100 100 100 100 100 100 100 82 81 93 95 90 97 100 100 93 86 77 67 58 44 42 51 57 65 66 75 94 100 100 100 100 100
100 82 81 62 65 82 79 64 55 58 60 56 64 74 100 90 94 100 100 94 79 84 100 100 100 100 100 100 83 72 62 67 60 59 60 70 92 100 100 100 100 100 100 83
100 100 100 88 78 60 87 86 69 64 53 82 70 62 52 86 100 91 76 77 83 100 100 100 98 92 84 80 78 70 69 68 62 65 80 80 79 86 88 83 90 92 88 87
100 100 100 100 100 77 48 61 81 84 58 67 71 76 63 57 62 70 59 62 72 93 100 100 86 77 65 52 44 41 47 56 67 71 70 71 81 82 86 90 93 95 95 88
100 93 99 97 100 87 67 58 50 72 69 84 84 88 81 78 78 72 81 99 100 100 82 66 56 48 47 52 58 51 54 63 75 80 84 93 96 100 98 84 81 75 74 79
100 100 100 94 83 92 90 68 55 52 54 72 73 69 78 98 100 100 100 96 73 67 61 55 54 57 65 67 70 79 90 93 92 93 94 89 80 73 66 57 49 64 71 66
100 100 100 100 100 87 94 100 98 72 47 74 99 96 100 100 100 94 93 92 87 83 80 77 74 80 87 97 100 100 96 89 88 85 78 73 60 64 66 55 61 63 76 72
86 100 100 100 100 100 100 100 100 99 100 100 100 100 100 100 100 100 99 84 79 83 92 95 95 99 100 100 100 100 96 86 88 96 98 89 81 85 88 95 96 99 100 94
61 84 100 100 100 100 100 100 100 100 100 100 100 100 100 100 100 99 95 98 97 99 100 100 99 100 100 100 97 89 84 98 100 100 100 100 92 89 98 97 94 99 94 88
81 93 100 100 100 100 100 100 100 100 100 100 100 100 100 100 100 100 100 100 100 100 100 92 92 99 100 100 100 100 100 100 100 100 100 100 100 100 100 97 100 100 100 100
100 100 100 100 100 100 100 100 100 100 100 100 100 100 100 100 100 100 100 100 100 100 100 100 100 98 97 98 100 100 100 100 100 100 100 100 100 100 100 99 99 100 100 100
78 100 100 100 100 100 100 100 100 100 100 100 100 100 100 100 100 100 100 100 100 100 100 100 100 100 100 100 99 100 100 100 100 100 100 100 100 100 100 97 95 95 99 95
Wind_Speed
68 63 55 62 58 61 57 50 46 43 42 39 37 32 28 25 22 21 20 17 16 15 14 12 10 9 8 9 11 10 11 13 13 12 12 14 14 16 18 18 20 22 24 26
74 60 69 68 68 62 58 52 49 48 46 44 41 35 33 29 26 25 24 21 19 17 16 14 12 10 7 6 8 10 11 10 10 11 15 17 19 22 24 25 27 27 29 31
74 76 78 71 71 66 61 57 55 55 51 47 44 40 38 34 27 27 25 23 21 19 17 16 15 13 10 8 7 7 9 10 11 13 15 16 19 21 22 25 28 32 34 35
79 87 79 76 76 71 65 61 59 58 53 49 44 46 40 37 32 30 28 28 24 23 20 17 16 15 13 13 12 12 12 12 12 14 16 17 18 19 21 22 24 27 29 32
82 82 81 78 76 76 72 65 62 63 57 51 50 47 45 42 39 36 33 31 30 28 26 25 22 20 20 18 17 18 18 18 17 17 19 21 23 24 25 26 28 30 32 33
94 77 86 86 86 79 72 71 68 68 60 50 51 50 48 47 45 41 41 39 35 35 34 32 30 28 26 25 24 22 22 23 25 26 26 26 27 27 28 28 29 31 34 37
100 85 80 85 88 81 74 74 72 67 55 55 57 51 57 52 53 52 48 45 45 44 41 39 38 37 36 34 33 32 30 30 30 31 33 33 35 34 35 37 38 40 42 44
102 93 90 79 83 85 79 78 72 69 63 66 66 49 57 61 59 56 54 52 50 50 49 48 46 46 45 43 43 42 41 39 40 40 40 41 42 44 45 46 46 47 50 52
102 99 93 90 79 79 84 79 78 70 68 70 65 60 66 65 64 61 57 56 56 56 54 54 54 54 52 51 51 51 51 50 50 49 50 50 51 52 53 55 56 58 60 62
106 104 102 99 91 85 79 86 83 74 71 68 67 68 67 70 70 68 64 61 60 60 61 59 58 58 57 57 57 57 58 59 59 60 61 61 60 61 62 63 65 66 69 71
112 108 106 102 97 90 88 85 82 79 74 70 73 70 74 75 74 72 70 68 66 64 62 62 63 63 61 60 60 60 60 61 63 64 66 66 65 66 68 69 69 71 73 76
110 114 109 101 101 97 95 88 85 83 80 78 73 72 78 77 76 76 76 73 71 71 69 69 67 67 69 68 66 65 66 68 69 69 70 71 72 73 76 78 78 79 80 83
116 115 115 111 108 102 97 96 88 83 87 79 78 69 76 80 80 79 76 75 73 71 71 73 74 75 74 74 74 75 76 76 78 79 80 81 82 84 83 82 84 83 86 87
122 121 117 109 96 99 100 98 98 96 93 76 78 78 80 80 80 79 79 78 76 77 77 78 77 78 79 79 81 83 83 85 85 85 85 87 89 89 90 87 87 91 92 94
125 124 118 111 111 111 106 105 98 98 86 92 78 81 81 84 84 81 82 81 81 81 79 80 81 81 82 83 84 85 86 88 88 88 88 90 93 95 94 95 96 98 98 100
121 121 119 118 119 116 111 112 110 102 93 98 89 84 82 79 81 83 84 84 84 85 83 83 85 86 86 87 90 91 91 90 90 92 93 94 95 97 99 99 100 103 106 109
117 114 119 119 122 121 121 111 108 107 105 99 97 91 91 92 94 93 92 92 91 91 91 92 93 92 93 94 97 98 98 98 98 98 99 101 104 104 106 110 112 114 116 119
125 116 116 118 123 130 112 116 116 114 112 111 105 100 98 101 103 101 100 100 101 100 98 98 99 101 103 105 106 104 103 104 104 105 106 109 112 114 115 116 119 121 123 124
128 124 120 117 122 120 116 116 114 115 113 114 115 112 109 106 109 109 106 106 105 106 106 106 107 107 107 107 108 108 109 111 113 113 115 116 118 118 118 121 123 125 128 128
132 129 127 123 124 121 108 111 114 115 116 114 118 117 116 117 119 115 115 118 117 116 114 113 113 113 113 112 113 115 116 118 118 119 119 119 120 121 122 126 129 131 133 134
136 134 133 127 126 121 113 115 117 121 110 115 120 120 121 123 123 122 124 122 120 118 118 118 119 119 119 119 121 120 121 123 124 124 124 125 127 127 130 133 135 137 137 139
135 134 135 134 129 123 114 117 120 119 120 122 125 124 123 124 126 126 126 125 124 123 122 122 123 124 124 124 125 126 128 128 128 128 128 129 131 133 135 136 137 137 137 137
137 137 133 134 132 128 125 124 124 125 128 129 129 129 128 128 128 128 128 130 129 127 127 127 128 128 129 129 130 132 132 133 133 132 131 131 133 136 137 137 139 137 136 138
135 136 136 135 132 131 129 130 129 128 127 128 128 131 132 132 133 134 131 131 132 132 133 132 133 134 134 133 134 136 137 137 136 136 136 136 136 136 137 139 135 136 137 139
138 136 137 139 138 136 134 133 134 133 131 129 131 132 133 133 133 134 135 135 136 136 136 136 137 137 137 137 136 136 136 137 137 134 134 136 137 137 138 141 142 143 145 147
142 146 144 142 140 139 139 137 137 138 138 136 134 133 134 135 135 136 137 136 136 136 135 136 137 138 138 139 137 136 138 138 138 137 137 138 140 141 145 149 150 152 153 155
Wind_Direction
222 221 223 222 215 216 221 215 213 212 218 218 220 221 222 228 233 238 242 245 246 249 257 257 263 275 267 263 261 260 262 258 263 264 260 259 257 257 260 265 270 277 281 281
222 227 223 224 221 219 220 218 216 226 221 223 224 220 219 221 226 230 236 240 244 247 252 256 255 257 271 267 264 267 268 269 272 275 274 275 272 270 270 273 276 277 280 282
223 219 221 223 227 223 220 220 222 221 221 220 221 220 221 221 221 226 231 231 231 235 238 240 246 252 253 263 271 278 286 291 291 287 282 280 277 279 283 286 287 285 287 289
225 221 220 222 225 228 224 219 221 227 221 221 215 225 222 219 219 225 227 228 226 228 228 233 240 249 254 257 261 269 277 285 289 291 290 287 286 285 286 288 290 291 293 291
222 226 224 226 225 227 227 221 221 221 218 217 219 221 223 222 222 222 225 228 227 228 228 233 239 244 246 254 264 269 271 276 284 292 295 294 295 295 295 297 296 298 299 301
220 219 224 223 224 224 229 228 224 223 220 222 222 222 225 230 228 227 229 228 230 232 234 236 239 247 250 253 255 262 268 274 278 284 290 291 290 292 290 291 296 297 298 298
219 222 224 227 227 227 229 233 234 231 237 224 225 224 235 236 241 239 236 234 234 235 237 239 241 242 245 253 258 263 270 272 275 279 282 282 283 286 288 288 289 291 293 294
220 222 225 228 234 232 229 231 234 232 229 227 231 226 238 241 239 242 238 238 237 239 242 242 244 248 250 251 255 258 262 267 271 275 279 282 284 286 286 288 290 291 293 295
218 220 226 228 229 232 232 232 231 233 233 230 229 230 235 240 241 245 245 245 243 243 245 247 250 250 251 254 255 257 261 264 267 271 275 278 284 288 290 290 289 290 292 293
220 223 226 229 229 229 234 235 233 233 236 237 235 234 237 243 247 248 251 247 247 249 250 251 254 256 258 258 260 261 262 263 265 269 272 274 277 280 283 285 286 286 289 291
222 224 224 227 230 232 234 235 236 236 236 237 237 234 238 242 246 248 250 252 252 255 259 260 259 262 264 264 266 269 268 268 269 269 270 269 272 276 278 279 281 284 286 286
220 223 224 228 232 234 237 233 234 234 237 235 236 236 239 243 247 250 250 250 253 255 257 257 259 261 263 266 268 270 271 272 271 270 272 271 273 276 278 280 281 284 287 291
223 223 225 226 231 233 237 238 238 237 236 237 240 240 240 243 246 249 253 254 256 256 258 262 264 266 266 265 265 268 270 271 271 272 274 275 277 279 283 282 283 287 290 290
219 221 223 226 231 233 235 238 238 241 239 238 238 240 241 245 247 248 250 255 257 258 261 263 264 266 267 267 268 270 272 274 276 278 279 281 282 284 285 285 287 288 289 290
223 227 228 225 227 229 229 231 231 235 235 237 236 237 236 238 241 246 252 256 257 259 261 263 264 266 268 270 271 272 274 276 278 280 282 283 282 283 285 285 287 288 289 290
223 228 229 229 231 230 231 232 235 239 241 243 240 241 241 245 246 248 250 252 255 258 260 263 265 267 269 271 272 274 276 277 279 280 282 283 284 284 285 287 287 288 290 291
224 225 227 230 232 231 231 235 239 240 241 242 241 245 245 247 250 250 253 256 258 259 259 261 264 267 269 271 273 275 277 278 279 280 282 283 284 285 285 286 288 289 290 291
222 225 227 227 229 233 235 236 237 238 240 242 243 248 251 250 251 254 255 256 257 256 258 260 264 267 269 271 272 274 276 278 278 280 282 284 285 285 286 287 288 288 289 290
225 226 229 229 232 236 235 238 240 241 241 244 245 248 251 251 252 254 255 255 255 256 259 262 266 270 271 273 273 275 276 277 279 280 282 283 285 286 286 285 287 288 289 290
226 227 228 233 235 236 236 239 243 244 244 247 250 251 252 251 252 253 253 255 258 261 263 266 268 270 270 272 273 274 276 278 280 281 281 282 282 283 285 287 289 289 290 291
226 227 229 231 234 235 233 235 238 242 245 246 247 248 249 250 252 254 256 257 259 261 263 267 269 271 271 272 274 275 277 279 280 281 281 282 284 286 286 287 288 289 289 291
225 227 229 230 233 235 234 236 238 241 240 241 243 244 247 250 253 254 256 259 261 262 263 267 269 269 270 271 272 273 276 278 280 281 282 283 283 285 287 288 289 291 290 291
225 227 229 231 232 233 234 235 236 238 239 240 241 243 247 250 253 256 258 259 261 262 263 266 269 270 271 271 273 274 277 279 280 281 281 282 282 283 283 286 288 290 289 289
226 228 230 230 231 233 234 236 236 237 239 241 242 244 247 250 253 254 256 258 260 261 263 264 266 267 269 271 272 273 275 276 277 279 280 281 280 282 284 285 289 290 290 290
226 228 231 232 232 234 235 237 238 238 239 241 243 245 246 249 251 253 255 256 259 261 263 264 265 266 269 270 271 272 274 275 276 277 279 281 283 285 285 286 288 289 290 292
224 226 230 233 233 235 236 237 239 240 241 242 244 246 247 249 251 252 254 257 259 260 262 263 264 266 268 271 274 276 275 276 277 279 281 282 282 283 284 286 289 291 291 292